User: anonymous   Login
Location: Unspecified
(0.0000°N, 0.0000°E)
Time: 09:21:46
(UTC+00:00)
Language:

HESSI - Orbit

View from above orbital plane
View from above orbital plane
View from above satellite
View from above satellite

Ground track
Ground track

The orbit data is extracted from the following two-line orbital elements,

1 27370U 02004A   18018.36595731  .00001284  00000-0  48420-4 0  9999
2 27370  38.0317 176.0084 0012461 345.3726  14.6682 15.29648892879222
Epoch (UTC): 18 January 2018 08:46:58
Eccentricity: 0.0012461
inclination: 38.0317°
perigee height: 468 km
apogee height: 485 km
right ascension of ascending node: 176.0084°
argument of perigee: 345.3726°
revolutions per day: 15.29648892
mean anomaly at epoch: 14.6682°
orbit number at epoch: 87922

The dashed part of the orbit path shows where the satellite is in the earth's shadow,  

DLR